Weather History for 62405 - December, 2013

Change the Weather History Date:

Wednesday, December 11, 2013

  Actual Average Record
Temperature  
Mean Temperature 58 °F -  
Max Temperature 69 °F 71 °F - ()
Min Temperature 47 °F 45 °F - ()
Degree Days  
Heating Degree Days 7    
Growing Degree Days 8 (Base 50)    
Moisture  
Dew Point 46 °F    
Average Humidity 60    
Maximum Humidity 93    
Minimum Humidity 38    
Precipitation  
Precipitation 0.00 in 0.00 in - ()
Sea Level Pressure  
Sea Level Pressure 30.00 in    
Wind  
Wind Speed 4 mph ()    
Max Wind Speed 10 mph    
Max Gust Speed -    
Visibility 6.0 miles    
Events      
T = Trace of Precipitation, MM = Missing Value Source: Averaged Metar Reports

Daily Weather History Graph

Daily Weather History Graph

Search for Another Location

Airport or City:

Trip Planner

Search our weather history database for the weather conditions in past years. The results will help you decide how hot, cold, wet, or windy it might be!

Date:

Astronomy

Dec. 11, 2013 Rise Set
Actual Time 6:25 AM EET 4:59 PM EET
Civil Twilight 6:00 AM EET 5:24 PM EET
Nautical Twilight 5:31 AM EET 5:53 PM EET
Astronomical Twilight 5:03 AM EET 6:21 PM EET
Moon 12:56 PM EET (12/11) 12:54 AM EET (12/11)
Length of Visible Light 11h 24m
Length of Day
10h 34m
Waxing Gibbous, 69% of the Moon is Illuminated
Dec 11
Waxing Gibbous
Dec 17
Full
Dec 25
Last Quarter
Jan 1
New
Jan 8
First Quarter

Hourly Weather History & Observations

Time (EET) Temp. Dew Point Humidity Pressure Visibility Wind Dir Wind Speed Gust Speed Precip Events Conditions
12:00 AM 55.4 °F 42.8 °F 63% 30.01 in - SSE 2.3 mph - N/A   Clear
1:00 AM 53.6 °F 44.6 °F 72% 30.01 in - SSE 4.6 mph - N/A   Clear
2:00 AM 52 °F 44 °F 64% 30.02 in 6 mi SSE 4.6 mph - -  
2:00 AM 51.8 °F 42.8 °F 71% 30.01 in - SSE 4.6 mph - N/A   Clear
3:00 AM 51.8 °F 42.8 °F 71% 30.01 in - SSE 3.5 mph - N/A   Clear
4:00 AM 50.0 °F 42.8 °F 76% 30.01 in - SSE 2.3 mph - N/A   Clear
5:00 AM 49 °F 41 °F 67% 30.02 in 6 mi Calm Calm - -  
5:00 AM 48.2 °F 41.0 °F 76% 30.01 in - Calm Calm - N/A   Clear
6:00 AM 44.6 °F 42.8 °F 93% 30.04 in - Calm Calm - N/A   Clear
7:00 AM 48.2 °F 42.8 °F 82% 30.04 in - Calm Calm - N/A   Clear
8:00 AM 53 °F 45 °F 65% 30.07 in 6 mi SSW 2.3 mph - -  
8:00 AM 53.6 °F 44.6 °F 72% 30.06 in - SSW 2.3 mph - N/A   Clear
10:00 AM 62.6 °F 46.4 °F 55% 30.06 in - NNW 5.8 mph - N/A   Clear
11:00 AM 66 °F 46 °F 38% 30.03 in 6 mi NNW 8.1 mph - -  
11:00 AM 66.2 °F 46.4 °F 49% 30.04 in - NNW 8.1 mph - N/A   Clear
12:00 PM 68.0 °F 46.4 °F 46% 30.01 in - NW 9.2 mph - N/A   Clear
1:00 PM 68.0 °F 48.2 °F 49% 29.98 in - NW 10.4 mph - N/A   Clear
2:00 PM 68 °F 48 °F 38% 29.96 in 6 mi NW 10.4 mph - -  
2:00 PM 68.0 °F 48.2 °F 49% 29.95 in - NW 10.4 mph - N/A   Clear
3:00 PM 69.8 °F 48.2 °F 46% 29.95 in - NW 9.2 mph - N/A   Clear
4:00 PM 68.0 °F 46.4 °F 46% 29.95 in - WNW 9.2 mph - N/A   Clear
5:00 PM 66 °F 47 °F 40% 29.95 in 6 mi WNW 6.9 mph - -  
5:00 PM 66.2 °F 48.2 °F 52% 29.95 in - WNW 6.9 mph - N/A   Clear
6:00 PM 64.4 °F 46.4 °F 52% 29.95 in - WNW 5.8 mph - N/A   Clear
7:00 PM 64.4 °F 50.0 °F 59% 29.95 in - WNW 8.1 mph - N/A   Clear
8:00 PM 63 °F 50 °F 54% 29.98 in 6 mi WNW 5.8 mph - -  
8:00 PM 62.6 °F 50.0 °F 63% 29.98 in - WNW 5.8 mph - N/A   Clear
9:00 PM 62.6 °F 50.0 °F 63% 29.98 in - WNW 8.1 mph - N/A   Clear
10:00 PM 60.8 °F 50.0 °F 68% 29.98 in - WNW 9.2 mph - N/A   Clear
11:00 PM 59 °F 49 °F 62% 30.01 in 6 mi NW 4.6 mph - -  
11:00 PM 59.0 °F 50.0 °F 72% 30.01 in - NW 4.6 mph - N/A   Clear